星链-3878 (STARLINK-3878 )

导读 | 星芒AI

STARLINK-3878 是由 SpaceX 发射的星链计划中的一颗低轨通信卫星,属于第 11 批星链卫星(Batch 11B)。该卫星于 2023 年 4 月 23 日搭乘猎鹰 9 号火箭从佛罗里达州卡纳维拉尔角发射升空。它运行在约 540 公里的轨道高度,旨在为全球用户提供高速互联网服务。STARLINK-3878 采用先进的星间激光通信技术,提高了网络效率和覆盖范围,是 SpaceX 构建全球卫星互联网网络的重要组成部分。

基本信息
目录编号:
52479
目录名称:
STARLINK-3878
国际标识:
2022-049AE
轨道中心:
EARTH
卫星名称:
星链-3878
卫星全名:
星链-3878 (STARLINK-3878 )
卫星状态:
在轨 (已飞行1278 天)
发射日期:
2022-05-06 UTC
国别 :
美国 (US)
星等 :
--
轨道信息
数据来源 国际轨道数据
星历时间: 2025-11-04T10:56:31+0800
18小时前
查看轨道信息
半长轴: 6917.863km
偏心率: 0.0001289
轨道倾角: 53.217°
近地点辐角 89.516°
升交点赤经 252.813°
平近点角 270.598°
近地点: 538.836km
远地点: 540.62km
周期: 95.437分钟
每日圈数: 15.08846
详细信息
固有亮度:
5
最大亮度:
2.5
卫星平台:
Starlink v1.5
覆盖范围:
全球
运营商:
太空探索技术公司
运营商所在国:
美国
制造商(研发单位):
太空探索技术公司
制造商所在国:
美国
使用方式:
暂无
卫星简介
星链(Starlink)计划是由太空探索技术公司(SpaceX)提出的一个巨型低轨卫星互联网星座项目,计划在2019年至2024年间在太空搭建由约1.2万颗卫星组成的“星链”网络,其中1584颗将部署在地球上空550千米处的近地轨道,并从2020年开始工作。该卫星仍在工作。
2D轨道图
3D轨道图
轨道高度分析图
轨道倾角分析图
轨道综合分析图
查看轨道综合分析图